User: anonymous   Login
Location: Knowlton
(51.2333°N, 1.2667°E)
Time: 04:37:09
(UTC+00:00)
Language:

Cosmos 1805 Rocket - Orbit

View from above orbital plane
View from above orbital plane
View from above satellite
View from above satellite

Ground track
Ground track

The orbit data is extracted from the following two-line orbital elements,

1 17192U 86097B   21171.49977124  .00000077  00000-0  64242-5 0  9992
2 17192  82.5060 322.0172 0015906 318.2169 104.0679 14.83648873844691
Epoch (UTC): 20 June 2021 11:59:40
Eccentricity: 0.0015906
inclination: 82.5060°
perigee height: 607 km
apogee height: 629 km
right ascension of ascending node: 322.0172°
argument of perigee: 318.2169°
revolutions per day: 14.83648873
mean anomaly at epoch: 104.0679°
orbit number at epoch: 84469

The dashed part of the orbit path shows where the satellite is in the earth's shadow,  

DLR